Weather History for South St. Paul, MN

Change the Weather History Date:

Wednesday, September 12, 2012

  Actual Average (KMSP) Record (KMSP)
Temperature  
Mean Temperature 66 °F 64 °F  
Max Temperature 78 °F 73 °F 94 °F (1948)
Min Temperature 55 °F 54 °F 36 °F (1940)
Degree Days  
Heating Degree Days 0 4  
Month to date heating degree days 31  
Since 1 July heating degree days 50  
Cooling Degree Days 2 3  
Month to date cooling degree days 42  
Year to date cooling degree days 723  
Growing Degree Days 16 (Base 50)    
Moisture  
Dew Point 51 °F    
Average Humidity 69    
Maximum Humidity 89    
Minimum Humidity 35    
Precipitation  
Precipitation 0.14 in 0.11 in 4.96 in (1903)
Month to date precipitation 1.30  
Year to date precipitation 23.47  
Snow  
Snow 0.00 in 0.00 in 0.00 in ()
Month to date snowfall 0.0  
Since 1 July snowfall 0.0  
Since 1 September snowfall 0.0  
Snow Depth -    
Sea Level Pressure  
Sea Level Pressure 30.12 in    
Wind  
Wind Speed 6 mph (West)    
Max Wind Speed 14 mph    
Max Gust Speed 20 mph    
Visibility 10 miles    
Events Rain    
T = Trace of Precipitation, MM = Missing Value Source: NWS Daily Summary

Daily Weather History Graph

Daily Weather History Graph

Search for Another Location

Airport:

Trip Planner

Search our weather history database for the weather conditions in past years. The results will help you decide how hot, cold, wet, or windy it might be!

Date:

Astronomy

Sep. 12, 2012 Rise Set
Actual Time 6:47 AM CDT 7:27 PM CDT
Civil Twilight 6:18 AM CDT 7:57 PM CDT
Nautical Twilight 5:43 AM CDT 8:32 PM CDT
Astronomical Twilight 5:06 AM CDT 9:08 PM CDT
Moon 2:57 AM CDT (9/12) 5:21 PM CDT (9/12)
Length of Visible Light 13h 38m
Length of Day
12h 39m
Waning Crescent, 13% of the Moon is Illuminated
Sep 12
Waning Crescent
Sep 15
New
Sep 22
First Quarter
Sep 29
Full
Oct 8
Last Quarter

Hourly Weather History & Observations

Time (CDT) Temp. Dew Point Humidity Pressure Visibility Wind Dir Wind Speed Gust Speed Precip Events Conditions
12:12 AM 78.1 °F 48.4 °F 35% 29.84 in 10.0 mi South 5.8 mph - N/A   Clear
12:32 AM 77.9 °F 48.9 °F 36% 29.85 in 10.0 mi SSW 6.9 mph - N/A   Clear
12:52 AM 77.5 °F 49.1 °F 37% 29.85 in 10.0 mi South 9.2 mph - N/A   Clear
1:12 AM 77.5 °F 49.1 °F 37% 29.87 in 10.0 mi WSW 8.1 mph - N/A   Clear
1:32 AM 77.0 °F 49.5 °F 38% 29.88 in 10.0 mi West 6.9 mph - N/A   Clear
1:51 AM 76.6 °F 50.7 °F 40% 29.90 in 10.0 mi NNW 11.5 mph 16.1 mph N/A   Clear
2:12 AM 74.1 °F 51.6 °F 45% 29.91 in 10.0 mi NNW 11.5 mph 17.3 mph N/A   Clear
2:32 AM 73.0 °F 50.9 °F 46% 29.91 in 10.0 mi North 11.5 mph - N/A   Clear
2:52 AM 72.5 °F 50.5 °F 46% 29.93 in 10.0 mi North 9.2 mph - N/A   Clear
3:12 AM 71.8 °F 50.4 °F 47% 29.95 in 10.0 mi North 9.2 mph - N/A   Scattered Clouds
3:32 AM 71.2 °F 50.4 °F 48% 29.95 in 10.0 mi NNW 11.5 mph - N/A   Scattered Clouds
3:52 AM 68.9 °F 49.6 °F 50% 29.97 in 10.0 mi NNW 12.7 mph - 0.01 in Rain Light Rain
4:12 AM 68.0 °F 48.6 °F 50% 29.98 in 10.0 mi NNW 13.8 mph 19.6 mph N/A   Mostly Cloudy
4:32 AM 66.2 °F 49.5 °F 55% 30.01 in 10.0 mi NNW 10.4 mph 17.3 mph N/A Rain Light Rain
4:52 AM 64.0 °F 48.6 °F 57% 30.03 in 10.0 mi NW 13.8 mph 18.4 mph N/A Rain Light Rain
5:12 AM 61.9 °F 49.3 °F 63% 30.03 in 10.0 mi North 8.1 mph - 0.01 in Rain Light Rain
5:32 AM 60.4 °F 50.7 °F 70% 30.03 in 10.0 mi North 5.8 mph - 0.02 in Rain Light Rain
5:52 AM 60.8 °F 50.9 °F 70% 30.03 in 10.0 mi NE 4.6 mph - 0.02 in Rain Light Rain
6:12 AM 61.2 °F 49.5 °F 65% 30.04 in 10.0 mi NE 3.5 mph - N/A   Mostly Cloudy
6:32 AM 61.2 °F 47.3 °F 60% 30.05 in 10.0 mi NNE 5.8 mph - 0.01 in   Mostly Cloudy
6:52 AM 61.2 °F 48.6 °F 63% 30.07 in 10.0 mi Calm Calm - 0.01 in   Mostly Cloudy
7:12 AM 61.2 °F 48.2 °F 62% 30.07 in 10.0 mi Calm Calm - N/A   Mostly Cloudy
7:52 AM 60.4 °F 51.8 °F 73% 30.07 in 10.0 mi Calm Calm - N/A   Overcast
8:12 AM 61.2 °F 52.3 °F 73% 30.10 in 10.0 mi SW 3.5 mph - N/A   Mostly Cloudy
8:32 AM 61.3 °F 51.8 °F 71% 30.10 in 10.0 mi Calm Calm - N/A   Mostly Cloudy
8:52 AM 62.4 °F 51.6 °F 68% 30.11 in 10.0 mi Calm Calm - N/A   Scattered Clouds
9:12 AM 62.6 °F 51.3 °F 66% 30.12 in 10.0 mi SSW 3.5 mph - N/A   Mostly Cloudy
9:32 AM 63.3 °F 51.4 °F 65% 30.11 in 10.0 mi Calm Calm - N/A   Scattered Clouds
9:52 AM 63.7 °F 50.9 °F 63% 30.12 in 10.0 mi West 3.5 mph - N/A   Mostly Cloudy
10:12 AM 63.1 °F 51.3 °F 65% 30.14 in 10.0 mi West 4.6 mph - N/A   Overcast
10:32 AM 62.8 °F 52.3 °F 69% 30.15 in 4.0 mi West 4.6 mph - N/A   Haze
10:52 AM 62.6 °F 51.8 °F 68% 30.17 in 10.0 mi WNW 4.6 mph - N/A   Light Drizzle
11:12 AM 62.1 °F 51.4 °F 68% 30.17 in 10.0 mi WSW 5.8 mph - N/A Rain Light Rain
11:32 AM 61.0 °F 52.0 °F 72% 30.17 in 7.0 mi WSW 4.6 mph - N/A Rain Light Rain
11:52 AM 60.4 °F 52.3 °F 75% 30.18 in 10.0 mi SW 3.5 mph - N/A Rain Light Rain
12:12 PM 59.9 °F 53.2 °F 79% 30.19 in 10.0 mi WSW 4.6 mph - 0.01 in Rain Light Rain
12:32 PM 59.9 °F 53.8 °F 80% 30.21 in 7.0 mi West 4.6 mph - 0.02 in Rain Light Rain
12:52 PM 59.9 °F 52.9 °F 78% 30.20 in 10.0 mi WSW 4.6 mph - 0.02 in Rain Light Rain
1:12 PM 59.5 °F 51.4 °F 75% 30.20 in 10.0 mi SSW 3.5 mph - 0.01 in Rain Light Rain
1:32 PM 59.0 °F 51.1 °F 75% 30.18 in 10.0 mi South 4.6 mph - 0.01 in Rain Light Rain
1:52 PM 58.6 °F 50.4 °F 74% 30.19 in 10.0 mi SW 3.5 mph - 0.01 in   Light Drizzle
2:12 PM 58.6 °F 50.4 °F 74% 30.17 in 10.0 mi South 3.5 mph - N/A   Scattered Clouds
2:32 PM 59.0 °F 51.1 °F 75% 30.19 in 10.0 mi Calm Calm - N/A   Scattered Clouds
2:52 PM 58.6 °F 51.6 °F 77% 30.18 in 10.0 mi West 3.5 mph - N/A   Scattered Clouds
3:12 PM 58.6 °F 50.7 °F 75% 30.19 in 10.0 mi West 3.5 mph - N/A   Mostly Cloudy
3:32 PM 58.1 °F 52.0 °F 80% 30.20 in 10.0 mi West 4.6 mph - N/A Rain Light Rain
3:52 PM 57.4 °F 52.0 °F 82% 30.22 in 7.0 mi WSW 4.6 mph - 0.04 in Rain Light Rain
4:12 PM 57.2 °F 52.0 °F 83% 30.20 in 10.0 mi South 3.5 mph - 0.01 in Rain Light Rain
4:52 PM 56.5 °F 50.2 °F 79% 30.19 in 10.0 mi South 3.5 mph - 0.03 in Rain Light Rain
5:12 PM 56.8 °F 51.1 °F 81% 30.21 in 10.0 mi Calm Calm - N/A   Scattered Clouds
5:32 PM 57.6 °F 50.4 °F 77% 30.21 in 10.0 mi West 3.5 mph - N/A   Clear
5:52 PM 57.9 °F 50.9 °F 77% 30.20 in 10.0 mi Calm Calm - N/A   Clear
6:12 PM 58.1 °F 51.3 °F 78% 30.21 in 10.0 mi Calm Calm - N/A   Scattered Clouds
6:32 PM 58.3 °F 52.3 °F 81% 30.21 in 10.0 mi Calm Calm - N/A   Mostly Cloudy
6:52 PM 58.1 °F 51.3 °F 78% 30.21 in 10.0 mi WSW 4.6 mph - N/A   Mostly Cloudy
7:12 PM 57.9 °F 51.8 °F 80% 30.21 in 10.0 mi West 3.5 mph - N/A   Scattered Clouds
7:32 PM 57.2 °F 52.2 °F 83% 30.21 in 10.0 mi Calm Calm - N/A   Clear
7:52 PM 56.7 °F 52.2 °F 85% 30.21 in 10.0 mi West 3.5 mph - N/A   Clear
8:12 PM 56.5 °F 52.5 °F 87% 30.22 in 10.0 mi Calm Calm - N/A   Clear
8:32 PM 56.3 °F 52.3 °F 87% 30.23 in 10.0 mi Calm Calm - N/A   Clear
8:52 PM 56.3 °F 52.7 °F 88% 30.22 in 10.0 mi Calm Calm - N/A   Clear
9:12 PM 55.8 °F 52.7 °F 89% 30.23 in 10.0 mi Calm Calm - N/A   Clear
9:52 PM 55.8 °F 52.0 °F 87% 30.24 in 10.0 mi Calm Calm - N/A   Clear
10:12 PM 56.3 °F 50.9 °F 82% 30.24 in 10.0 mi Calm Calm - N/A   Clear
10:32 PM 56.3 °F 50.2 °F 80% 30.23 in 10.0 mi Calm Calm - N/A   Clear
10:52 PM 56.3 °F 50.0 °F 79% 30.24 in 10.0 mi Calm Calm - N/A   Clear
11:12 PM 55.9 °F 50.2 °F 81% 30.24 in 10.0 mi Calm Calm - N/A   Clear
11:32 PM 55.6 °F 50.5 °F 83% 30.25 in 10.0 mi Calm Calm - N/A   Clear
11:52 PM 55.9 °F 50.7 °F 83% 30.24 in 10.0 mi Calm Calm - N/A   Clear